STARLINK-1648 (46533 NORAD) Tracking and Keplerian Element Data

This shows tracking and keplerian element data for the satellite.

Feedback or suggestion? Click here.




ElementValue
Catalog46533
NameSTARLINK-1648
Epoch Orbit179
Epoch Day336.91667824
Epoch Year2020
RAAN172.7618
Inclination52.9992
Eccentricity0.0001538
Argument of Perigee74.2474
Mean Anonmoly194.9871
Mean Motion15.05572898
Decay Rate0.00018481
L11 46533U 20070B 20336.91667824 .00018481 00000-0 12845-2 0 9991
L22 46533 52.9992 172.7618 0001538 74.2474 194.9871 15.05572898 1792

Live tracking and technical data element details for STARLINK-1648 (NORAD 46533). STARLINK-1648 can be tracked NOW for your location showing map with azimuth and elevation plus other details from your city location.

Track the satellite on the map from your city or location and see movement details for azimuth, elevation, latitude, longitude, range, height, and movement on the map or in text.







IsCatalogInMostPopularTable: catalog: 46533, numindb: 15
Update: records affected: 1



GetName: 46533 STARLINK-1648

Hit Count: updated at: Thu, 03 Dec 2020 02:56:19 GMT